Location: Unspecified
(41.5000°N, 0.0000°E)
Time: 03:22:40
(UTC+00:00)

Vanguard 3 - Pass Details

Date: 27 June 2019
Orbit: 508 x 3262 km, 33.3° (Epoch: 13 October)

Event Time Altitude Azimuth Distance (km) Brightness Sun altitude
Rises 05:44:37 0° 181° (S) 7,180 11.7 12.0°
Reaches altitude 10° 05:54:27 10° 158° (SSE) 6,148 11.7 13.7°
Maximum altitude 06:00:50 13° 138° (SE) 5,749 11.9 14.8°
Drops below altitude 10° 06:06:47 10° 118° (ESE) 5,684 12.2 15.9°
Sets 06:14:39 0° 94° (E) 6,142 13.0 17.3°
